Time,TemperatureF,DewpointF,PressureIn,WindDirection,WindDirectionDegrees,WindSpeedMPH,WindSpeedGustMPH,Humidity,HourlyPrecipIn,Conditions,Clouds,dailyrainin,SoftwareType,DateUTC
2013-10-08 00:00:00,58.6,32.5,28.47,SE,124,3.1,3.6,37,0.00,,---,0.00,VWS V14.01,2013-10-08 05:00:00,
2013-10-08 00:05:00,58.6,32.5,28.47,SSE,157,2.7,5.8,37,0.00,,---,0.00,VWS V14.01,2013-10-08 05:05:00,
2013-10-08 00:10:00,58.6,32.5,28.47,SE,127,3.6,5.8,37,0.00,,---,0.00,VWS V14.01,2013-10-08 05:10:00,
2013-10-08 00:15:00,58.6,32.5,28.47,SE,144,2.7,5.8,37,0.00,,---,0.00,VWS V14.01,2013-10-08 05:15:00,
2013-10-08 00:20:00,58.5,33.0,28.47,SSW,209,3.1,5.8,38,0.00,,---,0.00,VWS V14.01,2013-10-08 05:20:00,
2013-10-08 00:26:00,58.5,33.0,28.47,ESE,116,2.7,5.8,38,0.00,,---,0.00,VWS V14.01,2013-10-08 05:26:00,
2013-10-08 00:31:00,58.3,32.8,28.47,ESE,122,2.7,5.8,38,0.00,,---,0.00,VWS V14.01,2013-10-08 05:31:00,
2013-10-08 00:36:00,58.1,32.7,28.47,SE,133,3.6,5.8,38,0.00,,---,0.00,VWS V14.01,2013-10-08 05:36:00,
2013-10-08 00:41:00,58.1,32.7,28.47,SE,137,4.0,5.8,38,0.00,,---,0.00,VWS V14.01,2013-10-08 05:41:00,
2013-10-08 00:46:00,57.9,33.1,28.47,SSE,149,0.0,5.8,39,0.00,,---,0.00,VWS V14.01,2013-10-08 05:46:00,
2013-10-08 00:51:00,57.9,33.1,28.47,SE,129,3.6,5.8,39,0.00,,---,0.00,VWS V14.01,2013-10-08 05:51:00,
2013-10-08 00:56:00,57.7,33.0,28.47,SE,145,2.2,5.8,39,0.00,,---,0.00,VWS V14.01,2013-10-08 05:56:00,
2013-10-08 01:01:00,57.7,33.0,28.47,SSE,166,3.1,5.4,39,0.00,,---,0.00,VWS V14.01,2013-10-08 06:01:00,
2013-10-08 01:06:00,57.6,32.8,28.47,SSE,160,0.0,5.4,39,0.00,,---,0.00,VWS V14.01,2013-10-08 06:06:00,
2013-10-08 01:11:00,57.6,32.8,28.47,ESE,120,4.0,5.4,39,0.00,,---,0.00,VWS V14.01,2013-10-08 06:11:00,
2013-10-08 01:17:00,57.6,33.4,28.47,SE,128,2.7,5.4,40,0.00,,---,0.00,VWS V14.01,2013-10-08 06:17:00,
2013-10-08 01:22:00,57.6,33.4,28.47,SE,136,3.6,5.4,40,0.00,,---,0.00,VWS V14.01,2013-10-08 06:22:00,
2013-10-08 01:27:00,57.6,33.4,28.47,SE,140,3.1,5.4,40,0.00,,---,0.00,VWS V14.01,2013-10-08 06:27:00,
2013-10-08 01:32:00,57.6,33.4,28.47,SE,126,3.1,5.4,40,0.00,,---,0.00,VWS V14.01,2013-10-08 06:32:00,
2013-10-08 01:37:00,57.6,33.4,28.47,SE,135,4.9,5.4,40,0.00,,---,0.00,VWS V14.01,2013-10-08 06:37:00,
2013-10-08 01:42:00,57.6,33.4,28.47,SSE,159,4.0,5.4,40,0.00,,---,0.00,VWS V14.01,2013-10-08 06:42:00,
2013-10-08 01:47:00,57.6,33.4,28.47,South,179,4.9,5.4,40,0.00,,---,0.00,VWS V14.01,2013-10-08 06:47:00,
2013-10-08 01:52:00,57.6,33.4,28.47,SE,126,3.1,5.4,40,0.00,,---,0.00,VWS V14.01,2013-10-08 06:52:00,
2013-10-08 01:57:00,57.6,33.4,28.47,SE,135,3.1,5.4,40,0.00,,---,0.00,VWS V14.01,2013-10-08 06:57:00,
2013-10-08 02:02:00,57.6,33.4,28.47,SE,140,3.1,5.8,40,0.00,,---,0.00,VWS V14.01,2013-10-08 07:02:00,
2013-10-08 02:08:00,57.6,33.4,28.47,SE,138,3.1,5.8,40,0.00,,---,0.00,VWS V14.01,2013-10-08 07:08:00,
2013-10-08 02:13:00,57.4,33.3,28.47,SE,129,4.0,5.8,40,0.00,,---,0.00,VWS V14.01,2013-10-08 07:13:00,
2013-10-08 02:18:00,57.2,33.7,28.47,South,172,3.6,6.3,41,0.00,,---,0.00,VWS V14.01,2013-10-08 07:18:00,
2013-10-08 02:23:00,57.2,33.7,28.47,ESE,120,3.1,6.3,41,0.00,,---,0.00,VWS V14.01,2013-10-08 07:23:00,
2013-10-08 02:28:00,57.2,33.7,28.47,SE,142,2.7,6.3,41,0.00,,---,0.00,VWS V14.01,2013-10-08 07:28:00,
2013-10-08 02:33:00,57.0,34.2,28.47,SSE,149,2.7,6.3,42,0.00,,---,0.00,VWS V14.01,2013-10-08 07:33:00,
2013-10-08 02:38:00,56.8,34.0,28.47,SSE,150,2.7,6.3,42,0.00,,---,0.00,VWS V14.01,2013-10-08 07:38:00,
2013-10-08 02:43:00,56.7,33.8,28.47,South,176,4.0,6.3,42,0.00,,---,0.00,VWS V14.01,2013-10-08 07:43:00,
2013-10-08 02:48:00,56.5,34.3,28.47,SE,141,3.6,6.3,43,0.00,,---,0.00,VWS V14.01,2013-10-08 07:48:00,
2013-10-08 02:53:00,56.3,34.1,28.47,ESE,118,0.0,6.3,43,0.00,,---,0.00,VWS V14.01,2013-10-08 07:53:00,
2013-10-08 02:58:00,55.9,34.4,28.47,SSE,158,3.6,6.3,44,0.00,,---,0.00,VWS V14.01,2013-10-08 07:58:00,
2013-10-08 03:04:00,55.8,34.2,28.47,SSE,155,3.6,3.6,44,0.00,,---,0.00,VWS V14.01,2013-10-08 08:04:00,
2013-10-08 03:09:00,55.8,34.8,28.47,East,101,2.7,3.6,45,0.00,,---,0.00,VWS V14.01,2013-10-08 08:09:00,
2013-10-08 03:14:00,55.6,34.6,28.47,SE,144,2.7,4.0,45,0.00,,---,0.00,VWS V14.01,2013-10-08 08:14:00,
2013-10-08 03:19:00,55.4,34.4,28.47,WSW,242,2.7,4.0,45,0.00,,---,0.00,VWS V14.01,2013-10-08 08:19:00,
2013-10-08 03:24:00,55.4,34.4,28.47,ESE,122,5.4,5.4,45,0.00,,---,0.00,VWS V14.01,2013-10-08 08:24:00,
2013-10-08 03:29:00,55.4,34.4,28.47,South,170,3.1,5.4,45,0.00,,---,0.00,VWS V14.01,2013-10-08 08:29:00,
2013-10-08 03:34:00,55.4,34.4,28.47,SW,229,3.1,5.4,45,0.00,,---,0.00,VWS V14.01,2013-10-08 08:34:00,
2013-10-08 03:39:00,55.6,34.6,28.47,ESE,119,2.7,5.4,45,0.00,,---,0.00,VWS V14.01,2013-10-08 08:39:00,
2013-10-08 03:44:00,55.6,34.6,28.47,ESE,113,4.9,5.4,45,0.00,,---,0.00,VWS V14.01,2013-10-08 08:44:00,
2013-10-08 03:50:00,55.6,34.6,28.47,SE,132,3.6,6.3,45,0.00,,---,0.00,VWS V14.01,2013-10-08 08:50:00,
2013-10-08 03:55:00,55.4,34.4,28.47,SE,130,0.0,6.3,45,0.00,,---,0.00,VWS V14.01,2013-10-08 08:55:00,
2013-10-08 04:00:00,55.4,35.0,28.47,SE,139,4.0,6.3,46,0.00,,---,0.00,VWS V14.01,2013-10-08 09:00:00,
2013-10-08 04:05:00,55.4,35.0,28.47,SSE,152,4.9,5.8,46,0.00,,---,0.00,VWS V14.01,2013-10-08 09:05:00,
2013-10-08 04:10:00,55.2,34.8,28.44,SSE,149,2.2,5.8,46,0.00,,---,0.00,VWS V14.01,2013-10-08 09:10:00,
2013-10-08 04:15:00,55.2,34.8,28.44,ESE,107,4.9,5.8,46,0.00,,---,0.00,VWS V14.01,2013-10-08 09:15:00,
2013-10-08 04:20:00,55.2,34.8,28.44,SSE,156,2.7,6.3,46,0.00,,---,0.00,VWS V14.01,2013-10-08 09:20:00,
2013-10-08 04:25:00,55.2,34.8,28.44,South,169,2.2,6.3,46,0.00,,---,0.00,VWS V14.01,2013-10-08 09:25:00,
2013-10-08 04:30:00,55.2,34.8,28.44,SSE,153,2.7,6.3,46,0.00,,---,0.00,VWS V14.01,2013-10-08 09:30:00,
2013-10-08 04:35:00,55.0,34.7,28.44,SSE,149,3.6,6.3,46,0.00,,---,0.00,VWS V14.01,2013-10-08 09:35:00,
2013-10-08 04:40:00,55.0,34.7,28.44,ESE,116,3.6,6.3,46,0.00,,---,0.00,VWS V14.01,2013-10-08 09:40:00,
2013-10-08 04:45:00,55.0,34.7,28.44,ESE,123,3.1,6.3,46,0.00,,---,0.00,VWS V14.01,2013-10-08 09:45:00,
2013-10-08 04:51:00,55.0,34.7,28.44,ESE,107,2.7,6.3,46,0.00,,---,0.00,VWS V14.01,2013-10-08 09:51:00,
2013-10-08 04:56:00,55.0,34.1,28.47,SE,137,0.0,6.3,45,0.00,,---,0.00,VWS V14.01,2013-10-08 09:56:00,
2013-10-08 05:01:00,55.0,34.1,28.47,ESE,119,3.1,4.9,45,0.00,,---,0.00,VWS V14.01,2013-10-08 10:01:00,
2013-10-08 05:06:00,55.0,34.1,28.47,SE,145,3.1,5.4,45,0.00,,---,0.00,VWS V14.01,2013-10-08 10:06:00,
2013-10-08 05:11:00,55.0,34.1,28.47,SE,129,3.6,6.3,45,0.00,,---,0.00,VWS V14.01,2013-10-08 10:11:00,
2013-10-08 05:16:00,55.4,34.4,28.47,SE,142,3.1,6.3,45,0.00,,---,0.00,VWS V14.01,2013-10-08 10:16:00,
2013-10-08 05:21:00,55.4,34.4,28.47,SSE,151,2.7,6.3,45,0.00,,---,0.00,VWS V14.01,2013-10-08 10:21:00,
2013-10-08 05:26:00,55.4,34.4,28.47,SE,131,3.1,6.3,45,0.00,,---,0.00,VWS V14.01,2013-10-08 10:26:00,
2013-10-08 05:31:00,55.2,34.3,28.47,SE,128,2.7,6.3,45,0.00,,---,0.00,VWS V14.01,2013-10-08 10:31:00,
2013-10-08 05:37:00,55.2,34.3,28.47,South,170,3.6,6.3,45,0.00,,---,0.00,VWS V14.01,2013-10-08 10:37:00,
2013-10-08 05:42:00,55.0,34.7,28.47,South,179,3.1,6.3,46,0.00,,---,0.00,VWS V14.01,2013-10-08 10:42:00,
2013-10-08 05:47:00,54.9,34.5,28.47,ESE,123,2.2,7.6,46,0.00,,---,0.00,VWS V14.01,2013-10-08 10:47:00,
2013-10-08 05:52:00,54.7,34.3,28.47,SE,141,3.1,7.6,46,0.00,,---,0.00,VWS V14.01,2013-10-08 10:52:00,
2013-10-08 05:57:00,54.7,34.3,28.44,SE,143,4.0,7.6,46,0.00,,---,0.00,VWS V14.01,2013-10-08 10:57:00,
2013-10-08 06:02:00,54.7,34.3,28.44,SSE,151,2.7,5.4,46,0.00,,---,0.00,VWS V14.01,2013-10-08 11:02:00,
2013-10-08 06:07:00,54.7,34.3,28.44,SSW,203,5.4,6.3,46,0.00,,---,0.00,VWS V14.01,2013-10-08 11:07:00,
2013-10-08 06:12:00,54.7,33.8,28.47,SE,129,3.1,6.3,45,0.00,,---,0.00,VWS V14.01,2013-10-08 11:12:00,
2013-10-08 06:17:00,54.7,34.3,28.47,ESE,108,2.7,6.3,46,0.00,,---,0.00,VWS V14.01,2013-10-08 11:17:00,
2013-10-08 06:22:00,54.7,33.8,28.47,SE,134,4.0,6.3,45,0.00,,---,0.00,VWS V14.01,2013-10-08 11:22:00,
2013-10-08 06:27:00,54.5,33.6,28.47,SE,130,2.7,6.3,45,0.00,,---,0.00,VWS V14.01,2013-10-08 11:27:00,
2013-10-08 06:33:00,54.5,34.2,28.47,ESE,110,4.0,6.3,46,0.00,,---,0.00,VWS V14.01,2013-10-08 11:33:00,
2013-10-08 06:38:00,54.5,34.2,28.47,SSE,162,3.1,6.3,46,0.00,,---,0.00,VWS V14.01,2013-10-08 11:38:00,
2013-10-08 06:43:00,54.5,34.2,28.47,SSE,154,5.8,6.3,46,0.00,,---,0.00,VWS V14.01,2013-10-08 11:43:00,
2013-10-08 06:48:00,54.5,34.2,28.47,SSE,156,3.1,6.3,46,0.00,,---,0.00,VWS V14.01,2013-10-08 11:48:00,
2013-10-08 06:53:00,54.5,34.2,28.47,East,83,3.1,6.3,46,0.00,,---,0.00,VWS V14.01,2013-10-08 11:53:00,
2013-10-08 06:58:00,54.5,34.2,28.44,SE,124,5.8,7.6,46,0.00,,---,0.00,VWS V14.01,2013-10-08 11:58:00,
2013-10-08 07:03:00,54.7,34.3,28.44,SE,132,4.0,4.9,46,0.00,,---,0.00,VWS V14.01,2013-10-08 12:03:00,
2013-10-08 07:08:00,54.7,34.3,28.44,ESE,120,5.4,6.3,46,0.00,,---,0.00,VWS V14.01,2013-10-08 12:08:00,
2013-10-08 07:13:00,54.7,34.3,28.44,South,180,4.0,6.3,46,0.00,,---,0.00,VWS V14.01,2013-10-08 12:13:00,
2013-10-08 07:19:00,54.7,34.3,28.44,ESE,122,4.0,6.3,46,0.00,,---,0.00,VWS V14.01,2013-10-08 12:19:00,
2013-10-08 07:24:00,54.9,34.5,28.44,SW,217,4.0,6.3,46,0.00,,---,0.00,VWS V14.01,2013-10-08 12:24:00,
2013-10-08 07:29:00,54.9,34.5,28.44,SSE,147,4.0,6.3,46,0.00,,---,0.00,VWS V14.01,2013-10-08 12:29:00,
2013-10-08 07:34:00,54.9,34.5,28.44,NW,324,3.1,6.3,46,0.00,,---,0.00,VWS V14.01,2013-10-08 12:34:00,
2013-10-08 07:39:00,54.9,34.5,28.44,SE,125,3.1,6.3,46,0.00,,---,0.00,VWS V14.01,2013-10-08 12:39:00,
2013-10-08 07:44:00,55.0,34.7,28.44,East,98,3.1,6.3,46,0.00,,---,0.00,VWS V14.01,2013-10-08 12:44:00,
2013-10-08 07:49:00,55.0,34.7,28.44,SE,124,5.8,7.2,46,0.00,,---,0.00,VWS V14.01,2013-10-08 12:49:00,
2013-10-08 07:54:00,55.2,35.4,28.47,SE,137,4.0,7.2,47,0.00,,---,0.00,VWS V14.01,2013-10-08 12:54:00,
2013-10-08 07:59:00,55.4,35.0,28.47,SE,142,2.7,8.1,46,0.00,,---,0.00,VWS V14.01,2013-10-08 12:59:00,
2013-10-08 08:04:00,55.6,35.2,28.47,ESE,122,4.9,7.6,46,0.00,,---,0.00,VWS V14.01,2013-10-08 13:04:00,
2013-10-08 08:10:00,55.8,35.3,28.47,ESE,113,4.9,8.1,46,0.00,,---,0.00,VWS V14.01,2013-10-08 13:10:00,
2013-10-08 08:15:00,55.8,35.3,28.47,SSE,152,6.3,8.3,46,0.00,,---,0.00,VWS V14.01,2013-10-08 13:15:00,
2013-10-08 08:20:00,55.9,35.5,28.47,SE,139,5.4,8.3,46,0.00,,---,0.00,VWS V14.01,2013-10-08 13:20:00,
2013-10-08 08:25:00,56.1,35.6,28.47,ESE,119,4.0,8.3,46,0.00,,---,0.00,VWS V14.01,2013-10-08 13:25:00,
2013-10-08 08:30:00,56.3,35.8,28.47,SE,136,5.8,8.3,46,0.00,,---,0.00,VWS V14.01,2013-10-08 13:30:00,
2013-10-08 08:35:00,56.5,36.0,28.47,ESE,114,6.3,8.7,46,0.00,,---,0.00,VWS V14.01,2013-10-08 13:35:00,
2013-10-08 08:40:00,56.8,36.3,28.47,South,172,4.0,8.7,46,0.00,,---,0.00,VWS V14.01,2013-10-08 13:40:00,
2013-10-08 08:45:00,57.0,36.5,28.47,SE,124,4.9,8.7,46,0.00,,---,0.00,VWS V14.01,2013-10-08 13:45:00,
2013-10-08 08:50:00,57.2,36.1,28.47,SE,138,4.0,10.1,45,0.00,,---,0.00,VWS V14.01,2013-10-08 13:50:00,
2013-10-08 08:55:00,57.6,36.4,28.47,SE,124,3.1,10.1,45,0.00,,---,0.00,VWS V14.01,2013-10-08 13:55:00,
2013-10-08 09:01:00,57.9,36.7,28.47,SE,146,5.8,6.3,45,0.00,,---,0.00,VWS V14.01,2013-10-08 14:01:00,
2013-10-08 09:06:00,58.3,37.0,28.47,SE,130,3.6,8.3,45,0.00,,---,0.00,VWS V14.01,2013-10-08 14:06:00,
2013-10-08 09:11:00,58.6,37.4,28.47,SE,144,4.0,8.3,45,0.00,,---,0.00,VWS V14.01,2013-10-08 14:11:00,
2013-10-08 09:16:00,59.0,37.1,28.47,East,98,8.3,8.3,44,0.00,,---,0.00,VWS V14.01,2013-10-08 14:16:00,
2013-10-08 09:21:00,59.4,36.9,28.47,ESE,114,4.0,11.0,43,0.00,,---,0.00,VWS V14.01,2013-10-08 14:21:00,
2013-10-08 09:26:00,59.7,37.2,28.47,SE,127,3.6,11.0,43,0.00,,---,0.00,VWS V14.01,2013-10-08 14:26:00,
2013-10-08 09:31:00,60.3,37.1,28.47,ESE,106,2.7,11.0,42,0.00,,---,0.00,VWS V14.01,2013-10-08 14:31:00,
2013-10-08 09:36:00,60.6,36.8,28.47,ESE,111,5.8,11.0,41,0.00,,---,0.00,VWS V14.01,2013-10-08 14:36:00,
2013-10-08 09:41:00,61.0,36.5,28.47,ESE,118,5.4,11.0,40,0.00,,---,0.00,VWS V14.01,2013-10-08 14:41:00,
2013-10-08 09:46:00,61.3,36.2,28.47,ESE,102,7.6,11.0,39,0.00,,---,0.00,VWS V14.01,2013-10-08 14:46:00,
2013-10-08 09:52:00,61.9,36.7,28.47,SE,144,5.8,11.0,39,0.00,,---,0.00,VWS V14.01,2013-10-08 14:52:00,
2013-10-08 09:57:00,62.2,36.3,28.47,SSE,160,4.9,11.0,38,0.00,,---,0.00,VWS V14.01,2013-10-08 14:57:00,
2013-10-08 10:02:00,62.6,36.7,28.47,South,178,4.0,7.6,38,0.00,,---,0.00,VWS V14.01,2013-10-08 15:02:00,
2013-10-08 10:07:00,63.1,36.5,28.47,South,169,3.1,8.7,37,0.00,,---,0.00,VWS V14.01,2013-10-08 15:07:00,
2013-10-08 10:12:00,63.5,36.8,28.47,East,83,5.4,8.7,37,0.00,,---,0.00,VWS V14.01,2013-10-08 15:12:00,
2013-10-08 10:17:00,64.0,36.6,28.47,SE,129,5.4,9.2,36,0.00,,---,0.00,VWS V14.01,2013-10-08 15:17:00,
2013-10-08 10:22:00,64.4,36.9,28.47,SE,145,9.6,13.2,36,0.00,,---,0.00,VWS V14.01,2013-10-08 15:22:00,
2013-10-08 10:27:00,64.8,36.5,28.47,ESE,105,3.1,13.2,35,0.00,,---,0.00,VWS V14.01,2013-10-08 15:27:00,
2013-10-08 10:32:00,65.3,37.0,28.47,South,187,8.7,13.2,35,0.00,,---,0.00,VWS V14.01,2013-10-08 15:32:00,
2013-10-08 10:37:00,65.8,37.5,28.47,ESE,102,6.3,13.2,35,0.00,,---,0.00,VWS V14.01,2013-10-08 15:37:00,
2013-10-08 10:43:00,66.4,37.2,28.44,ESE,112,6.3,13.2,34,0.00,,---,0.00,VWS V14.01,2013-10-08 15:43:00,
2013-10-08 10:48:00,67.3,38.0,28.44,SSE,158,8.3,13.2,34,0.00,,---,0.00,VWS V14.01,2013-10-08 15:48:00,
2013-10-08 10:53:00,68.2,38.0,28.44,ESE,102,5.4,13.2,33,0.00,,---,0.00,VWS V14.01,2013-10-08 15:53:00,
2013-10-08 10:58:00,68.7,38.5,28.44,ESE,103,5.8,13.2,33,0.00,,---,0.00,VWS V14.01,2013-10-08 15:58:00,
2013-10-08 11:03:00,69.4,38.3,28.44,SSE,160,4.5,8.3,32,0.00,,---,0.00,VWS V14.01,2013-10-08 16:03:00,
2013-10-08 11:08:00,69.8,38.6,28.44,SSW,195,5.4,8.3,32,0.00,,---,0.00,VWS V14.01,2013-10-08 16:08:00,
2013-10-08 11:13:00,70.5,39.3,28.44,SSE,152,3.6,8.3,32,0.00,,---,0.00,VWS V14.01,2013-10-08 16:13:00,
2013-10-08 11:18:00,71.1,39.7,28.44,SE,133,5.4,8.3,32,0.00,,---,0.00,VWS V14.01,2013-10-08 16:18:00,
2013-10-08 11:23:00,71.4,38.4,28.44,East,89,8.1,10.5,30,0.00,,---,0.00,VWS V14.01,2013-10-08 16:23:00,
2013-10-08 11:29:00,71.6,37.7,28.44,SSE,150,7.6,10.5,29,0.00,,---,0.00,VWS V14.01,2013-10-08 16:29:00,
2013-10-08 11:34:00,72.0,38.0,28.44,SSE,160,5.4,10.5,29,0.00,,---,0.00,VWS V14.01,2013-10-08 16:34:00,
2013-10-08 11:39:00,72.3,38.3,28.44,SW,219,4.0,10.5,29,0.00,,---,0.00,VWS V14.01,2013-10-08 16:39:00,
2013-10-08 11:44:00,72.9,38.8,28.44,ESE,106,6.3,10.5,29,0.00,,---,0.00,VWS V14.01,2013-10-08 16:44:00,
2013-10-08 11:49:00,73.2,39.1,28.44,SSE,150,8.3,10.5,29,0.00,,---,0.00,VWS V14.01,2013-10-08 16:49:00,
2013-10-08 11:54:00,73.6,37.6,28.44,SE,140,4.9,10.5,27,0.00,,---,0.00,VWS V14.01,2013-10-08 16:54:00,
2013-10-08 11:59:00,73.9,37.9,28.44,East,92,4.0,10.5,27,0.00,,---,0.00,VWS V14.01,2013-10-08 16:59:00,
2013-10-08 12:04:00,74.3,38.2,28.44,ESE,108,5.8,8.3,27,0.00,,---,0.00,VWS V14.01,2013-10-08 17:04:00,
2013-10-08 12:09:00,74.7,38.5,28.44,SE,130,6.3,10.1,27,0.00,,---,0.00,VWS V14.01,2013-10-08 17:09:00,
2013-10-08 12:14:00,74.8,37.7,28.44,SSE,150,5.8,10.1,26,0.00,,---,0.00,VWS V14.01,2013-10-08 17:14:00,
2013-10-08 12:20:00,75.2,37.0,28.44,SSE,159,4.0,11.0,25,0.00,,---,0.00,VWS V14.01,2013-10-08 17:20:00,
2013-10-08 12:25:00,75.4,37.2,28.44,East,90,3.1,11.0,25,0.00,,---,0.00,VWS V14.01,2013-10-08 17:25:00,
2013-10-08 12:30:00,75.7,37.5,28.44,SE,134,4.0,11.0,25,0.00,,---,0.00,VWS V14.01,2013-10-08 17:30:00,
2013-10-08 12:35:00,75.9,37.6,28.44,SE,124,2.7,11.0,25,0.00,,---,0.00,VWS V14.01,2013-10-08 17:35:00,
2013-10-08 12:40:00,76.3,37.9,28.41,SW,219,5.8,11.0,25,0.00,,---,0.00,VWS V14.01,2013-10-08 17:40:00,
2013-10-08 12:45:00,76.6,38.2,28.41,East,98,4.0,11.0,25,0.00,,---,0.00,VWS V14.01,2013-10-08 17:45:00,
2013-10-08 12:50:00,77.0,37.5,28.41,SE,140,5.4,11.0,24,0.00,,---,0.00,VWS V14.01,2013-10-08 17:50:00,
2013-10-08 12:55:00,77.5,37.9,28.41,SSE,162,9.6,11.0,24,0.00,,---,0.00,VWS V14.01,2013-10-08 17:55:00,
2013-10-08 13:00:00,77.5,36.8,28.41,SE,125,7.6,9.6,23,0.00,,---,0.00,VWS V14.01,2013-10-08 18:00:00,
2013-10-08 13:06:00,77.7,38.1,28.41,SE,143,6.7,10.5,24,0.00,,---,0.00,VWS V14.01,2013-10-08 18:06:00,
2013-10-08 13:11:00,78.1,37.3,28.41,SSW,196,3.1,10.5,23,0.00,,---,0.00,VWS V14.01,2013-10-08 18:11:00,
2013-10-08 13:16:00,78.4,37.6,28.41,ESE,108,4.0,10.5,23,0.00,,---,0.00,VWS V14.01,2013-10-08 18:16:00,
2013-10-08 13:21:00,78.8,37.9,28.41,ESE,104,5.8,11.4,23,0.00,,---,0.00,VWS V14.01,2013-10-08 18:21:00,
2013-10-08 13:26:00,79.0,38.1,28.41,SE,133,5.8,11.4,23,0.00,,---,0.00,VWS V14.01,2013-10-08 18:26:00,
2013-10-08 13:31:00,79.3,38.4,28.41,East,91,8.3,11.4,23,0.00,,---,0.00,VWS V14.01,2013-10-08 18:31:00,
2013-10-08 13:36:00,79.7,37.5,28.41,SE,126,3.1,11.4,22,0.00,,---,0.00,VWS V14.01,2013-10-08 18:36:00,
2013-10-08 13:41:00,79.9,37.7,28.41,SE,139,4.0,11.4,22,0.00,,---,0.00,VWS V14.01,2013-10-08 18:41:00,
2013-10-08 13:47:00,80.2,38.0,28.41,SE,142,6.3,11.4,22,0.00,,---,0.00,VWS V14.01,2013-10-08 18:47:00,
2013-10-08 13:52:00,80.4,38.1,28.41,South,180,8.1,11.4,22,0.00,,---,0.00,VWS V14.01,2013-10-08 18:52:00,
2013-10-08 13:57:00,80.2,38.0,28.38,NW,313,4.9,11.4,22,0.00,,---,0.00,VWS V14.01,2013-10-08 18:57:00,
2013-10-08 14:02:00,80.1,37.8,28.38,SSE,149,7.6,7.6,22,0.00,,---,0.00,VWS V14.01,2013-10-08 19:02:00,
2013-10-08 14:07:00,80.2,38.0,28.38,SSE,166,4.0,8.3,22,0.00,,---,0.00,VWS V14.01,2013-10-08 19:07:00,
2013-10-08 14:12:00,81.0,38.6,28.38,East,101,8.1,11.0,22,0.00,,---,0.00,VWS V14.01,2013-10-08 19:12:00,
2013-10-08 14:17:00,81.0,37.4,28.38,WSW,253,4.9,12.3,21,0.00,,---,0.00,VWS V14.01,2013-10-08 19:17:00,
2013-10-08 14:22:00,80.6,37.1,28.38,ESE,108,5.8,12.3,21,0.00,,---,0.00,VWS V14.01,2013-10-08 19:22:00,
2013-10-08 14:27:00,80.8,37.2,28.38,South,175,5.4,12.3,21,0.00,,---,0.00,VWS V14.01,2013-10-08 19:27:00,
2013-10-08 14:32:00,80.8,37.2,28.38,South,176,8.7,12.3,21,0.00,,---,0.00,VWS V14.01,2013-10-08 19:32:00,
2013-10-08 14:38:00,81.1,37.5,28.38,SW,229,5.8,12.3,21,0.00,,---,0.00,VWS V14.01,2013-10-08 19:38:00,
2013-10-08 14:43:00,81.1,37.5,28.35,East,100,6.3,12.3,21,0.00,,---,0.00,VWS V14.01,2013-10-08 19:43:00,
2013-10-08 14:48:00,81.5,37.8,28.35,SE,140,10.1,12.3,21,0.00,,---,0.00,VWS V14.01,2013-10-08 19:48:00,
2013-10-08 14:53:00,81.9,38.1,28.35,ESE,112,4.9,12.3,21,0.00,,---,0.00,VWS V14.01,2013-10-08 19:53:00,
2013-10-08 14:58:00,82.2,38.4,28.35,SE,133,8.3,12.3,21,0.00,,---,0.00,VWS V14.01,2013-10-08 19:58:00,
2013-10-08 15:03:00,82.2,38.4,28.35,ESE,107,3.1,8.1,21,0.00,,---,0.00,VWS V14.01,2013-10-08 20:03:00,
2013-10-08 15:08:00,82.2,38.4,28.35,SE,145,5.4,8.3,21,0.00,,---,0.00,VWS V14.01,2013-10-08 20:08:00,
2013-10-08 15:13:00,82.2,38.4,28.35,ESE,109,3.6,10.1,21,0.00,,---,0.00,VWS V14.01,2013-10-08 20:13:00,
2013-10-08 15:18:00,82.0,38.3,28.35,SE,124,10.1,10.1,21,0.00,,---,0.00,VWS V14.01,2013-10-08 20:18:00,
2013-10-08 15:23:00,81.9,38.1,28.35,South,176,5.8,10.1,21,0.00,,---,0.00,VWS V14.01,2013-10-08 20:23:00,
2013-10-08 15:29:00,82.0,38.3,28.35,SE,126,6.3,10.1,21,0.00,,---,0.00,VWS V14.01,2013-10-08 20:29:00,
2013-10-08 15:34:00,82.2,38.4,28.35,East,86,5.4,10.1,21,0.00,,---,0.00,VWS V14.01,2013-10-08 20:34:00,
2013-10-08 15:39:00,82.0,38.3,28.35,SE,136,5.4,10.1,21,0.00,,---,0.00,VWS V14.01,2013-10-08 20:39:00,
2013-10-08 15:44:00,81.7,38.0,28.35,ESE,117,5.4,10.1,21,0.00,,---,0.00,VWS V14.01,2013-10-08 20:44:00,
2013-10-08 15:49:00,81.5,37.8,28.35,SE,139,5.8,10.1,21,0.00,,---,0.00,VWS V14.01,2013-10-08 20:49:00,
2013-10-08 15:54:00,81.5,37.8,28.35,ESE,122,6.3,10.1,21,0.00,,---,0.00,VWS V14.01,2013-10-08 20:54:00,
2013-10-08 15:59:00,81.7,38.0,28.35,SW,214,4.0,10.1,21,0.00,,---,0.00,VWS V14.01,2013-10-08 20:59:00,
2013-10-08 16:04:00,81.7,38.0,28.35,ESE,122,4.0,10.1,21,0.00,,---,0.00,VWS V14.01,2013-10-08 21:04:00,
2013-10-08 16:09:00,81.7,38.0,28.35,ESE,119,7.6,10.1,21,0.00,,---,0.00,VWS V14.01,2013-10-08 21:09:00,
2013-10-08 16:15:00,81.5,37.8,28.35,SSE,149,6.3,11.0,21,0.00,,---,0.00,VWS V14.01,2013-10-08 21:15:00,
2013-10-08 16:20:00,81.1,37.5,28.35,SE,135,7.6,11.0,21,0.00,,---,0.00,VWS V14.01,2013-10-08 21:20:00,
2013-10-08 16:25:00,81.0,37.4,28.35,SSE,163,5.4,11.4,21,0.00,,---,0.00,VWS V14.01,2013-10-08 21:25:00,
2013-10-08 16:30:00,80.6,37.1,28.35,SE,142,4.9,11.4,21,0.00,,---,0.00,VWS V14.01,2013-10-08 21:30:00,
2013-10-08 16:35:00,80.4,37.0,28.35,ESE,117,2.7,11.4,21,0.00,,---,0.00,VWS V14.01,2013-10-08 21:35:00,
2013-10-08 16:40:00,80.2,36.8,28.35,ESE,120,3.6,11.4,21,0.00,,---,0.00,VWS V14.01,2013-10-08 21:40:00,
2013-10-08 16:45:00,80.4,38.1,28.35,SSE,158,6.3,11.4,22,0.00,,---,0.00,VWS V14.01,2013-10-08 21:45:00,
2013-10-08 16:50:00,80.4,37.0,28.35,ESE,113,6.3,11.4,21,0.00,,---,0.00,VWS V14.01,2013-10-08 21:50:00,
2013-10-08 16:55:00,79.9,36.5,28.35,SE,128,5.4,11.4,21,0.00,,---,0.00,VWS V14.01,2013-10-08 21:55:00,
2013-10-08 17:01:00,79.5,36.2,28.35,SSE,163,7.6,8.7,21,0.00,,---,0.00,VWS V14.01,2013-10-08 22:01:00,
2013-10-08 17:06:00,79.0,35.8,28.35,SE,127,4.9,8.7,21,0.00,,---,0.00,VWS V14.01,2013-10-08 22:06:00,
2013-10-08 17:11:00,78.3,36.3,28.35,ESE,120,4.0,8.7,22,0.00,,---,0.00,VWS V14.01,2013-10-08 22:11:00,
2013-10-08 17:16:00,77.7,35.9,28.35,ESE,113,4.9,8.7,22,0.00,,---,0.00,VWS V14.01,2013-10-08 22:16:00,
2013-10-08 17:21:00,77.2,35.4,28.35,ESE,114,3.6,8.7,22,0.00,,---,0.00,VWS V14.01,2013-10-08 22:21:00,
2013-10-08 17:26:00,77.2,35.4,28.35,SW,217,4.0,8.7,22,0.00,,---,0.00,VWS V14.01,2013-10-08 22:26:00,
2013-10-08 17:31:00,77.2,35.4,28.35,SE,134,3.6,8.7,22,0.00,,---,0.00,VWS V14.01,2013-10-08 22:31:00,
2013-10-08 17:36:00,77.2,35.4,28.35,SE,136,4.9,8.7,22,0.00,,---,0.00,VWS V14.01,2013-10-08 22:36:00,
2013-10-08 17:41:00,76.8,36.2,28.32,SE,145,8.7,8.7,23,0.00,,---,0.00,VWS V14.01,2013-10-08 22:41:00,
2013-10-08 17:47:00,76.5,36.0,28.32,SSE,159,5.4,11.0,23,0.00,,---,0.00,VWS V14.01,2013-10-08 22:47:00,
2013-10-08 17:52:00,76.1,35.7,28.32,East,97,6.3,11.0,23,0.00,,---,0.00,VWS V14.01,2013-10-08 22:52:00,
2013-10-08 17:57:00,75.9,35.5,28.32,SSW,198,5.4,11.0,23,0.00,,---,0.00,VWS V14.01,2013-10-08 22:57:00,
2013-10-08 18:02:00,75.7,35.3,28.32,ESE,121,3.6,5.8,23,0.00,,---,0.00,VWS V14.01,2013-10-08 23:02:00,
2013-10-08 18:07:00,75.7,35.3,28.32,SSW,192,6.3,6.3,23,0.00,,---,0.00,VWS V14.01,2013-10-08 23:07:00,
2013-10-08 18:12:00,75.6,36.3,28.32,SSE,159,4.0,8.1,24,0.00,,---,0.00,VWS V14.01,2013-10-08 23:12:00,
2013-10-08 18:17:00,75.4,36.1,28.32,ESE,105,6.3,8.3,24,0.00,,---,0.00,VWS V14.01,2013-10-08 23:17:00,
2013-10-08 18:22:00,75.0,35.8,28.32,WNW,290,5.4,8.3,24,0.00,,---,0.00,VWS V14.01,2013-10-08 23:22:00,
2013-10-08 18:28:00,74.7,35.5,28.32,SE,133,3.6,8.3,24,0.00,,---,0.00,VWS V14.01,2013-10-08 23:28:00,
2013-10-08 18:33:00,74.5,36.4,28.32,South,181,7.2,8.7,25,0.00,,---,0.00,VWS V14.01,2013-10-08 23:33:00,
2013-10-08 18:38:00,74.1,36.1,28.32,ESE,113,3.1,8.7,25,0.00,,---,0.00,VWS V14.01,2013-10-08 23:38:00,
2013-10-08 18:43:00,73.8,35.8,28.32,South,178,3.1,8.7,25,0.00,,---,0.00,VWS V14.01,2013-10-08 23:43:00,
2013-10-08 18:48:00,73.4,35.5,28.32,SSE,150,8.7,8.7,25,0.00,,---,0.00,VWS V14.01,2013-10-08 23:48:00,
2013-10-08 18:53:00,72.9,36.0,28.32,SE,136,3.6,8.7,26,0.00,,---,0.00,VWS V14.01,2013-10-08 23:53:00,
2013-10-08 18:58:00,72.5,36.7,28.32,South,181,6.3,8.7,27,0.00,,---,0.00,VWS V14.01,2013-10-08 23:58:00,
2013-10-08 19:03:00,72.1,36.3,28.32,SSE,154,2.2,8.1,27,0.00,,---,0.00,VWS V14.01,2013-10-09 00:03:00,
2013-10-08 19:08:00,71.6,36.8,28.32,ESE,119,5.4,8.1,28,0.00,,---,0.00,VWS V14.01,2013-10-09 00:08:00,
2013-10-08 19:14:00,71.2,37.4,28.32,SE,129,4.0,8.1,29,0.00,,---,0.00,VWS V14.01,2013-10-09 00:14:00,
2013-10-08 19:19:00,71.1,37.2,28.32,ESE,121,3.1,8.1,29,0.00,,---,0.00,VWS V14.01,2013-10-09 00:19:00,
2013-10-08 19:24:00,70.7,36.9,28.32,SE,139,2.7,8.1,29,0.00,,---,0.00,VWS V14.01,2013-10-09 00:24:00,
2013-10-08 19:29:00,70.5,36.8,28.32,SSE,162,3.1,8.1,29,0.00,,---,0.00,VWS V14.01,2013-10-09 00:29:00,
2013-10-08 19:34:00,70.2,37.3,28.32,SSE,154,2.7,8.1,30,0.00,,---,0.00,VWS V14.01,2013-10-09 00:34:00,
2013-10-08 19:39:00,69.6,38.5,28.35,SSE,150,4.0,8.1,32,0.00,,---,0.00,VWS V14.01,2013-10-09 00:39:00,
2013-10-08 19:44:00,69.3,38.2,28.35,SSE,162,2.7,8.1,32,0.00,,---,0.00,VWS V14.01,2013-10-09 00:44:00,
2013-10-08 19:49:00,68.9,38.6,28.35,SSE,163,6.3,8.1,33,0.00,,---,0.00,VWS V14.01,2013-10-09 00:49:00,
2013-10-08 19:54:00,68.7,38.5,28.35,SE,144,4.9,8.1,33,0.00,,---,0.00,VWS V14.01,2013-10-09 00:54:00,
2013-10-08 20:00:00,68.5,38.3,28.35,SE,129,3.6,8.1,33,0.00,,---,0.00,VWS V14.01,2013-10-09 01:00:00,
2013-10-08 20:05:00,68.5,38.3,28.35,SE,144,5.8,10.1,33,0.00,,---,0.00,VWS V14.01,2013-10-09 01:05:00,
2013-10-08 20:10:00,68.4,38.2,28.35,ESE,114,4.9,10.1,33,0.00,,---,0.00,VWS V14.01,2013-10-09 01:10:00,
2013-10-08 20:15:00,68.2,38.0,28.35,ESE,123,3.1,10.1,33,0.00,,---,0.00,VWS V14.01,2013-10-09 01:15:00,
2013-10-08 20:20:00,68.0,37.8,28.35,SSE,166,4.0,11.0,33,0.00,,---,0.00,VWS V14.01,2013-10-09 01:20:00,
2013-10-08 20:25:00,67.8,38.5,28.35,SE,137,5.4,11.0,34,0.00,,---,0.00,VWS V14.01,2013-10-09 01:25:00,
2013-10-08 20:30:00,67.8,38.5,28.35,WSW,238,4.0,11.0,34,0.00,,---,0.00,VWS V14.01,2013-10-09 01:30:00,
2013-10-08 20:35:00,67.6,38.3,28.35,SE,129,3.1,11.0,34,0.00,,---,0.00,VWS V14.01,2013-10-09 01:35:00,
2013-10-08 20:40:00,67.5,38.1,28.35,SE,142,3.1,11.0,34,0.00,,---,0.00,VWS V14.01,2013-10-09 01:40:00,
2013-10-08 20:46:00,67.3,38.7,28.35,South,169,6.3,11.0,35,0.00,,---,0.00,VWS V14.01,2013-10-09 01:46:00,
2013-10-08 20:51:00,67.3,38.7,28.35,SE,137,5.4,11.0,35,0.00,,---,0.00,VWS V14.01,2013-10-09 01:51:00,
2013-10-08 20:56:00,67.1,38.6,28.35,SSE,152,4.0,11.0,35,0.00,,---,0.00,VWS V14.01,2013-10-09 01:56:00,
2013-10-08 21:01:00,66.9,38.4,28.35,SSE,153,5.4,8.1,35,0.00,,---,0.00,VWS V14.01,2013-10-09 02:01:00,
2013-10-08 21:06:00,66.7,39.0,28.35,SE,127,3.1,8.1,36,0.00,,---,0.00,VWS V14.01,2013-10-09 02:06:00,
2013-10-08 21:11:00,66.6,38.8,28.35,South,170,3.1,8.1,36,0.00,,---,0.00,VWS V14.01,2013-10-09 02:11:00,
2013-10-08 21:16:00,66.4,38.6,28.35,ESE,116,3.6,8.3,36,0.00,,---,0.00,VWS V14.01,2013-10-09 02:16:00,
2013-10-08 21:21:00,66.2,39.2,28.35,SE,142,3.1,8.3,37,0.00,,---,0.00,VWS V14.01,2013-10-09 02:21:00,
2013-10-08 21:27:00,66.2,39.2,28.35,South,175,5.4,8.3,37,0.00,,---,0.00,VWS V14.01,2013-10-09 02:27:00,
2013-10-08 21:32:00,65.8,39.5,28.35,SE,136,3.1,8.3,38,0.00,,---,0.00,VWS V14.01,2013-10-09 02:32:00,
2013-10-08 21:37:00,65.7,39.4,28.35,SE,131,3.6,8.3,38,0.00,,---,0.00,VWS V14.01,2013-10-09 02:37:00,
2013-10-08 21:42:00,65.5,39.9,28.35,South,170,3.1,8.3,39,0.00,,---,0.00,VWS V14.01,2013-10-09 02:42:00,
2013-10-08 21:47:00,65.5,40.5,28.35,SE,139,5.8,10.5,40,0.00,,---,0.00,VWS V14.01,2013-10-09 02:47:00,
2013-10-08 21:52:00,65.1,40.2,28.35,SSE,154,4.9,10.5,40,0.00,,---,0.00,VWS V14.01,2013-10-09 02:52:00,
2013-10-08 21:57:00,65.1,40.9,28.35,ESE,115,5.8,10.5,41,0.00,,---,0.00,VWS V14.01,2013-10-09 02:57:00,
2013-10-08 22:02:00,64.9,40.7,28.35,SE,138,3.6,10.5,41,0.00,,---,0.00,VWS V14.01,2013-10-09 03:02:00,
2013-10-08 22:08:00,64.8,41.8,28.35,SSW,195,4.9,10.5,43,0.00,,---,0.00,VWS V14.01,2013-10-09 03:08:00,
2013-10-08 22:13:00,64.6,41.6,28.35,SSE,163,3.6,10.5,43,0.00,,---,0.00,VWS V14.01,2013-10-09 03:13:00,
2013-10-08 22:18:00,64.4,42.0,28.35,SE,128,5.8,10.5,44,0.00,,---,0.00,VWS V14.01,2013-10-09 03:18:00,
2013-10-08 22:23:00,64.4,42.0,28.35,SSE,168,5.4,10.5,44,0.00,,---,0.00,VWS V14.01,2013-10-09 03:23:00,
2013-10-08 22:28:00,64.4,42.0,28.35,SSE,151,3.6,10.5,44,0.00,,---,0.00,VWS V14.01,2013-10-09 03:28:00,
2013-10-08 22:33:00,64.4,42.0,28.35,ESE,118,4.0,10.5,44,0.00,,---,0.00,VWS V14.01,2013-10-09 03:33:00,
2013-10-08 22:38:00,64.2,42.5,28.35,ESE,115,3.1,10.5,45,0.00,,---,0.00,VWS V14.01,2013-10-09 03:38:00,
2013-10-08 22:44:00,64.0,42.9,28.35,SE,141,3.6,10.5,46,0.00,,---,0.00,VWS V14.01,2013-10-09 03:44:00,
2013-10-08 22:49:00,63.9,42.7,28.35,SE,139,3.6,10.5,46,0.00,,---,0.00,VWS V14.01,2013-10-09 03:49:00,
2013-10-08 22:54:00,63.9,42.7,28.35,South,183,8.1,10.5,46,0.00,,---,0.00,VWS V14.01,2013-10-09 03:54:00,
2013-10-08 22:59:00,63.7,43.1,28.35,SSE,165,4.9,10.5,47,0.00,,---,0.00,VWS V14.01,2013-10-09 03:59:00,
2013-10-08 23:01:00,63.7,43.1,28.35,SE,131,3.1,5.4,47,0.00,,---,0.00,VWS V14.01,2013-10-09 04:01:00,
2013-10-08 23:02:00,63.7,43.1,28.35,SW,215,4.0,5.4,47,0.00,,---,0.00,VWS V14.01,2013-10-09 04:02:00,
2013-10-08 23:06:00,63.5,42.9,28.35,SSE,160,4.9,5.8,47,0.00,,---,0.00,VWS V14.01,2013-10-09 04:06:00,
2013-10-08 23:11:00,63.5,42.9,28.35,SE,133,4.0,7.6,47,0.00,,---,0.00,VWS V14.01,2013-10-09 04:11:00,
2013-10-08 23:16:00,63.3,42.8,28.35,SE,145,4.0,7.6,47,0.00,,---,0.00,VWS V14.01,2013-10-09 04:16:00,
2013-10-08 23:21:00,63.0,43.0,28.35,South,172,2.7,7.6,48,0.00,,---,0.00,VWS V14.01,2013-10-09 04:21:00,
2013-10-08 23:26:00,63.0,43.0,28.35,SSE,147,2.7,8.1,48,0.00,,---,0.00,VWS V14.01,2013-10-09 04:26:00,
2013-10-08 23:31:00,62.6,42.7,28.35,ESE,123,4.0,8.1,48,0.00,,---,0.00,VWS V14.01,2013-10-09 04:31:00,
2013-10-08 23:36:00,62.6,43.2,28.35,SSW,201,2.7,8.1,49,0.00,,---,0.00,VWS V14.01,2013-10-09 04:36:00,
2013-10-08 23:41:00,62.2,43.4,28.35,SE,135,2.7,8.1,50,0.00,,---,0.00,VWS V14.01,2013-10-09 04:41:00,
2013-10-08 23:46:00,62.2,43.4,28.35,SSE,151,4.0,8.1,50,0.00,,---,0.00,VWS V14.01,2013-10-09 04:46:00,
2013-10-08 23:51:00,62.1,43.2,28.35,SSE,156,2.7,8.1,50,0.00,,---,0.00,VWS V14.01,2013-10-09 04:51:00,
2013-10-08 23:56:00,61.9,43.6,28.38,East,97,2.7,8.1,51,0.00,,---,0.00,VWS V14.01,2013-10-09 04:56:00,